Wind_Speed
6 6 6 6 6 7 7 6 6 7 7 8 8 7 7 6 6 6 6 6 6 7 7 8 7 7 8 8 9 9 9 9 10 10 11 10 9 9 9 9 9 9 8
8 7 7 7 7 7 7 7 7 7 7 8 8 8 8 7 7 7 7 7 8 7 8 8 8 8 8 8 9 9 9 9 9 10 10 10 10 9 10 10 9 10 9
9 9 9 9 8 8 8 8 7 8 9 9 9 9 9 8 8 8 7 8 8 8 8 9 8 8 9 9 9 9 9 10 9 9 10 10 11 11 11 11 11 11 11
10 10 10 10 9 9 9 9 9 9 9 9 9 9 10 9 9 9 9 9 9 9 9 9 9 9 9 10 10 11 11 11 11 11 11 11 11 12 12 12 12 12 12
11 11 11 11 10 10 10 10 10 10 10 10 10 10 10 9 9 9 10 10 11 10 10 9 10 10 10 11 11 12 13 13 12 13 13 13 13 13 14 14 14 14 14
11 11 11 11 11 11 11 11 11 11 11 11 11 10 10 10 10 10 10 10 10 11 11 11 11 12 12 12 12 13 14 14 14 15 15 15 15 15 15 15 15 15 15
11 11 11 11 12 11 11 11 11 11 12 12 11 10 9 9 9 10 10 11 11 11 12 12 12 13 13 13 13 14 14 15 15 15 16 16 16 16 16 16 17 17 17
12 11 12 12 12 12 12 11 11 12 11 11 10 10 9 9 10 10 11 12 12 12 12 13 13 14 13 13 13 14 15 15 15 15 16 17 17 17 17 17 17 17 17
13 13 12 13 13 13 12 12 12 12 12 11 10 11 11 11 11 11 12 12 12 13 14 14 14 14 14 14 14 14 15 16 17 17 17 16 17 18 18 18 18 18 18
13 12 12 12 12 12 12 13 13 13 13 12 12 12 13 12 13 13 14 14 14 14 14 15 15 15 15 15 15 15 16 17 17 18 18 18 18 19 19 20 19 19 19
13 13 13 13 12 12 12 13 14 14 14 14 14 14 14 14 14 14 15 15 15 15 15 16 16 16 16 16 16 16 17 17 18 18 19 20 20 20 20 21 21 21 21
14 15 14 14 14 14 14 14 14 14 15 15 16 16 16 15 15 16 16 16 16 16 16 16 17 17 17 17 18 18 19 19 19 20 20 20 21 21 21 22 21 20 20
16 16 15 16 15 15 15 15 15 15 15 16 17 17 17 17 17 17 17 17 17 17 17 17 18 19 19 19 19 19 19 20 20 20 20 21 22 22 21 20 20 19 20
17 16 16 17 16 17 17 17 17 17 17 17 17 17 18 18 18 17 17 17 18 17 17 18 19 19 19 19 19 19 20 20 20 21 21 22 22 22 22 22 20 20 21
17 17 18 18 18 17 18 18 18 18 18 18 18 19 19 19 19 19 19 18 18 18 18 18 19 18 19 20 20 21 21 22 22 22 22 23 23 22 22 23 22 21 22
18 19 19 19 19 19 19 19 19 20 20 20 20 20 20 20 20 20 21 20 19 19 19 19 20 20 21 21 21 22 22 23 23 23 23 23 23 23 23 23 22 22 22
19 19 19 20 20 20 20 20 21 21 21 21 21 21 22 22 21 21 21 20 20 20 20 21 21 22 22 22 22 23 23 22 22 22 22 22 23 23 23 22 23 23 24
20 20 20 20 20 20 20 21 21 21 21 21 22 22 22 22 22 22 21 21 21 21 21 22 22 23 23 24 24 24 23 22 22 22 22 23 23 23 23 23 23 24 25
22 21 21 22 22 21 22 21 21 21 21 22 21 22 22 22 22 22 22 22 22 22 22 23 23 23 24 24 23 23 22 22 23 23 23 24 25 25 25 25 25 25 26
23 23 22 23 23 23 23 23 23 22 22 22 22 22 22 22 22 23 23 23 23 24 24 23 23 23 23 24 23 23 23 23 23 24 25 25 26 26 26 26 27 26 26
24 24 24 24 24 24 24 24 24 24 24 23 24 24 24 23 23 24 24 24 25 25 24 24 24 24 24 24 24 24 24 24 24 25 26 26 26 26 27 27 27 28 28
25 25 25 25 25 25 25 26 26 25 25 25 25 25 25 25 25 25 25 25 26 25 25 25 24 24 25 25 25 25 25 25 25 26 26 26 26 26 27 27 28 28 29
27 26 26 26 26 26 26 26 26 27 26 26 26 26 27 26 26 26 26 26 26 26 26 26 25 25 25 25 25 25 26 26 26 27 27 26 26 26 27 28 28 28 29
26 26 26 27 26 26 26 27 27 27 27 27 27 27 28 28 28 27 27 27 27 27 26 26 25 24 25 25 25 26 26 27 27 27 28 27 27 27 27 28 28 29 29
27 27 27 27 27 27 28 27 27 28 28 28 28 28 28 29 28 28 28 27 26 26 26 26 25 25 25 26 26 26 27 27 27 27 28 28 27 28 28 29 29 29 30
27 27 28 28 27 27 27 27 28 28 28 28 28 28 28 28 27 27 27 26 26 26 26 26 26 26 27 27 28 28 28 28 28 27 28 28 28 29 29 29 30 30 31
Wind_Direction
283 279 287 285 285 287 287 284 282 285 282 281 283 281 281 278 274 268 261 259 256 251 253 253 260 260 257 255 245 244 248 245 245 242 236 235 242 245 250 260 267 270 273
287 282 285 288 289 287 289 280 275 279 286 285 282 282 280 278 278 268 266 264 261 257 260 257 259 256 256 254 242 246 246 246 251 252 246 241 243 246 251 257 261 266 267
286 284 285 284 285 287 288 286 282 281 279 281 278 276 276 276 279 272 267 263 262 262 265 258 261 256 255 257 250 249 248 247 252 254 248 245 245 248 252 256 260 263 266
287 284 282 281 283 285 286 285 283 282 281 281 281 276 274 271 272 271 269 264 263 266 266 264 262 259 257 258 258 252 254 254 254 256 254 253 252 253 254 259 262 263 266
288 285 282 279 280 282 283 283 282 283 281 282 282 279 274 267 267 268 268 267 265 266 266 269 269 267 263 259 255 255 257 257 257 256 256 257 257 258 259 259 263 265 268
293 288 283 281 278 280 280 280 282 282 281 280 279 280 273 270 271 268 268 266 266 265 267 266 267 269 270 265 261 261 261 261 262 259 258 259 262 264 265 264 265 267 268
294 289 283 280 279 279 279 278 281 285 285 282 282 283 275 275 278 276 274 270 266 266 268 270 269 271 271 268 267 265 265 265 264 261 261 260 264 268 270 269 269 269 269
293 289 284 281 280 279 278 278 281 283 285 284 286 286 281 282 281 279 278 275 268 268 268 269 269 268 268 270 269 267 269 269 271 265 263 262 264 268 271 272 271 269 269
294 290 286 284 282 278 277 275 279 280 281 282 283 285 283 282 284 284 281 278 274 273 272 272 273 271 270 271 271 272 272 270 270 270 266 266 266 268 270 271 270 269 270
294 290 284 283 282 281 279 279 279 280 280 280 281 282 281 280 283 283 284 281 276 275 274 274 272 272 274 271 271 271 271 271 271 270 270 268 269 269 273 273 270 270 271
292 291 287 283 282 283 283 282 281 280 280 280 281 282 281 280 281 282 283 284 281 275 274 274 273 272 272 272 272 272 273 273 272 272 272 272 271 271 272 271 270 271 273
287 288 286 283 282 284 285 286 286 283 281 280 279 280 280 279 282 283 283 284 282 278 277 275 274 273 272 269 271 273 276 276 276 274 273 273 274 275 275 272 272 272 272
284 284 282 282 282 283 283 282 285 285 283 282 281 281 279 279 280 283 284 285 284 282 280 277 275 276 273 271 273 275 276 276 277 277 276 274 275 275 276 275 272 271 272
282 282 281 280 280 282 281 281 282 282 284 284 282 281 279 279 280 282 284 285 284 282 283 281 282 279 275 274 274 275 276 276 276 277 276 274 273 273 273 275 273 272 274
280 281 282 282 281 281 281 282 283 283 283 283 281 280 280 280 279 280 280 280 284 285 287 286 284 280 277 276 275 274 275 275 276 277 276 274 273 274 273 275 275 276 274
280 281 282 283 283 282 281 282 283 284 283 282 281 281 280 280 282 282 280 278 280 283 286 286 283 281 279 278 277 275 275 275 275 275 275 272 272 271 272 273 274 275 277
279 280 281 282 283 282 282 281 282 284 282 281 281 280 280 282 280 282 280 279 280 281 281 283 283 283 282 278 278 277 275 275 275 274 275 272 272 272 273 275 275 276 276
281 281 282 282 281 282 283 282 283 283 282 281 281 280 281 282 280 279 280 281 281 281 280 280 281 282 281 281 278 276 275 275 275 274 274 274 274 274 275 277 277 277 277
281 283 283 284 281 281 281 282 283 284 283 282 282 281 281 281 281 279 279 280 281 281 281 280 281 280 280 281 281 278 278 276 274 273 273 274 274 274 275 277 278 277 277
280 281 282 282 282 280 281 281 281 284 283 282 282 281 280 281 281 281 280 280 281 281 281 281 281 281 282 282 281 280 278 276 274 272 272 274 275 274 275 277 277 277 278
280 281 282 281 282 282 281 281 281 282 281 280 280 280 279 279 280 280 279 281 282 281 281 282 282 281 282 281 280 280 279 277 276 275 274 274 274 274 276 277 278 279 280
279 281 281 282 283 283 282 281 280 281 281 280 280 279 279 278 279 280 280 282 282 282 281 282 282 283 283 281 279 279 279 279 278 277 276 275 276 275 276 278 280 280 280
278 279 281 282 283 284 283 283 281 281 281 280 278 278 278 279 279 280 280 281 281 281 281 281 281 283 283 282 282 281 280 279 279 280 278 276 276 277 277 279 281 282 283
277 278 280 281 282 284 284 283 282 283 281 280 279 278 277 278 278 279 279 279 279 279 279 280 280 282 283 283 282 281 281 281 280 280 279 279 279 278 280 281 282 283 284
276 278 280 280 281 282 282 281 283 283 281 279 279 279 279 278 278 277 276 276 276 277 278 278 279 281 284 284 284 283 282 281 281 281 280 279 280 280 280 281 282 282 283
277 278 279 280 281 282 282 281 282 283 281 280 279 279 277 276 276 275 274 275 275 275 277 277 279 281 283 285 285 284 283 282 281 280 279 280 279 280 281 281 282 282 283
Height
5872 5872 5872 5872 5872 5871 5871 5871 5872 5872 5872 5872 5872 5872 5872 5873 5873 5873 5874 5875 5875 5876 5877 5877 5878 5878 5879 5879 5880 5881 5882 5883 5884 5885 5887 5888 5889 5890 5891 5891 5891 5891 5892
5871 5871 5871 5871 5871 5871 5870 5870 5870 5871 5871 5871 5871 5871 5871 5871 5872 5872 5873 5874 5874 5874 5875 5875 5876 5877 5877 5878 5878 5879 5880 5882 5883 5884 5885 5886 5887 5888 5888 5889 5889 5889 5890
5869 5870 5870 5870 5870 5870 5869 5869 5869 5869 5870 5870 5869 5869 5869 5870 5870 5871 5871 5872 5872 5873 5873 5874 5874 5875 5876 5876 5877 5878 5879 5880 5881 5882 5883 5884 5885 5885 5886 5886 5887 5887 5887
5868 5868 5868 5868 5868 5868 5868 5868 5868 5867 5867 5868 5867 5867 5868 5868 5868 5869 5869 5870 5870 5871 5871 5872 5872 5873 5874 5874 5875 5876 5877 5878 5879 5880 5881 5881 5882 5883 5883 5884 5884 5885 5885
5866 5866 5866 5867 5866 5866 5867 5866 5866 5865 5866 5866 5865 5865 5865 5865 5866 5866 5867 5867 5868 5868 5869 5870 5870 5871 5872 5872 5873 5874 5875 5875 5876 5877 5878 5879 5879 5880 5880 5881 5881 5882 5882
5864 5864 5864 5864 5864 5864 5864 5864 5864 5864 5864 5864 5863 5863 5863 5863 5863 5864 5864 5865 5865 5866 5867 5867 5868 5869 5869 5870 5870 5871 5872 5873 5873 5874 5875 5876 5876 5877 5877 5877 5878 5878 5878
5862 5862 5862 5862 5862 5862 5862 5862 5862 5862 5862 5861 5861 5861 5861 5861 5861 5862 5862 5862 5863 5863 5864 5864 5865 5866 5866 5867 5868 5868 5869 5870 5870 5871 5871 5872 5873 5873 5873 5874 5874 5874 5874
5861 5860 5859 5859 5859 5859 5859 5859 5859 5859 5859 5859 5859 5859 5859 5860 5860 5859 5860 5860 5860 5860 5861 5861 5862 5862 5863 5863 5864 5865 5866 5867 5867 5867 5868 5868 5869 5869 5870 5870 5870 5870 5870
5858 5858 5857 5857 5856 5856 5856 5856 5856 5857 5857 5857 5857 5857 5857 5857 5857 5857 5857 5857 5857 5857 5857 5858 5858 5859 5859 5860 5861 5862 5863 5863 5863 5864 5864 5864 5865 5865 5865 5865 5866 5866 5866
5855 5855 5855 5854 5853 5853 5853 5853 5853 5854 5854 5854 5854 5854 5854 5854 5854 5854 5854 5854 5854 5854 5854 5855 5855 5856 5855 5856 5857 5858 5858 5859 5859 5859 5860 5860 5860 5860 5860 5861 5861 5861 5861
5852 5852 5851 5851 5851 5850 5850 5850 5850 5850 5850 5851 5851 5851 5850 5850 5850 5851 5851 5851 5851 5851 5851 5851 5851 5852 5852 5853 5853 5854 5854 5854 5854 5855 5855 5855 5855 5855 5855 5856 5856 5856 5856
5850 5849 5848 5848 5848 5847 5848 5847 5847 5847 5847 5847 5847 5847 5847 5847 5847 5847 5847 5847 5847 5847 5847 5847 5847 5847 5848 5848 5849 5849 5849 5849 5849 5850 5850 5850 5850 5850 5850 5850 5850 5850 5851
5846 5846 5845 5845 5844 5844 5844 5844 5844 5844 5843 5843 5843 5843 5843 5844 5844 5843 5843 5843 5843 5843 5843 5843 5842 5843 5843 5843 5844 5844 5844 5844 5844 5844 5844 5845 5845 5845 5845 5844 5844 5845 5845
5843 5842 5842 5841 5841 5841 5840 5840 5840 5840 5840 5839 5839 5839 5839 5839 5839 5839 5839 5839 5838 5838 5838 5838 5838 5838 5838 5838 5839 5839 5839 5839 5839 5839 5839 5839 5839 5839 5839 5839 5839 5839 5839
5839 5838 5838 5837 5836 5836 5836 5836 5836 5836 5835 5835 5835 5835 5835 5835 5835 5834 5834 5834 5834 5834 5834 5833 5833 5833 5833 5833 5833 5833 5833 5833 5833 5833 5833 5833 5833 5833 5833 5833 5833 5833 5833
5835 5834 5834 5833 5832 5832 5832 5832 5832 5831 5831 5830 5830 5830 5830 5830 5830 5830 5829 5829 5829 5829 5829 5828 5828 5828 5827 5827 5827 5827 5827 5827 5826 5826 5826 5826 5826 5827 5827 5827 5827 5827 5827
5830 5830 5829 5828 5828 5827 5827 5827 5827 5826 5826 5825 5825 5825 5825 5825 5825 5824 5824 5823 5823 5823 5823 5823 5822 5822 5821 5821 5821 5821 5821 5821 5820 5820 5820 5820 5821 5821 5821 5821 5821 5820 5820
5825 5825 5824 5823 5823 5822 5822 5821 5821 5821 5820 5820 5820 5820 5819 5819 5819 5819 5818 5818 5817 5817 5817 5817 5817 5816 5816 5815 5815 5814 5814 5814 5814 5814 5814 5814 5815 5815 5815 5814 5814 5814 5813
5820 5820 5819 5818 5817 5816 5816 5816 5815 5815 5815 5814 5814 5814 5814 5813 5813 5813 5813 5813 5812 5812 5811 5811 5811 5810 5810 5809 5808 5808 5808 5808 5808 5808 5808 5808 5808 5808 5808 5808 5808 5807 5807
5814 5814 5813 5812 5811 5810 5810 5809 5809 5809 5808 5808 5808 5808 5807 5807 5807 5807 5807 5807 5806 5806 5805 5804 5804 5804 5803 5802 5802 5802 5801 5801 5801 5801 5801 5801 5801 5801 5801 5801 5800 5800 5799
5808 5807 5806 5806 5805 5804 5803 5803 5803 5802 5802 5802 5802 5801 5801 5801 5800 5800 5800 5800 5800 5799 5799 5798 5798 5797 5797 5796 5795 5795 5794 5794 5794 5794 5794 5794 5794 5794 5793 5793 5792 5792 5791
5801 5800 5799 5799 5798 5797 5797 5796 5796 5796 5795 5795 5795 5794 5794 5794 5794 5793 5793 5793 5792 5792 5792 5791 5791 5791 5790 5789 5788 5788 5787 5787 5787 5787 5786 5786 5786 5786 5786 5785 5784 5783 5783
5794 5793 5793 5792 5792 5791 5790 5789 5789 5788 5788 5788 5787 5787 5786 5786 5786 5786 5785 5785 5785 5784 5784 5784 5784 5783 5783 5782 5781 5781 5780 5780 5780 5779 5778 5778 5778 5778 5777 5777 5776 5775 5774
5786 5786 5786 5785 5785 5784 5783 5782 5781 5781 5780 5780 5779 5779 5778 5778 5777 5777 5777 5777 5777 5777 5777 5776 5776 5776 5775 5774 5774 5773 5772 5772 5772 5771 5770 5770 5769 5769 5768 5768 5767 5766 5765
5779 5779 5778 5778 5777 5777 5775 5775 5774 5773 5772 5772 5771 5770 5770 5770 5769 5769 5769 5769 5769 5769 5769 5769 5768 5768 5767 5767 5766 5765 5765 5764 5763 5763 5762 5761 5761 5760 5760 5759 5758 5757 5756
5772 5771 5771 5770 5770 5769 5768 5767 5766 5765 5764 5763 5763 5762 5761 5761 5761 5761 5761 5761 5762 5762 5761 5761 5761 5760 5759 5759 5758 5757 5756 5755 5755 5754 5754 5753 5753 5752 5752 5751 5749 5748 5747